Tracking 25734 objects as of 28-May-2022
HD Live streaming from Space Station
objects crossing your sky now

SL-12 DEB

Track SL-12 DEB now!
10-day predictions


NORAD ID: 45035
Int'l Code: 2009-070N
Perigee: 337.2 km
Apogee: 12,318.0 km
Inclination: 64.4 °
Period: 237.4 minutes
Semi major axis: 12698 km
RCS: Unknown
Launch date: December 14, 2009
Source: Commonwealth of Independent States (former USSR) (CIS)
Launch site: TYURATAM MISSILE AND SPACE COMPLEX (TTMTR)

Note: This is SATELLITE DEBRIS
aabbcc
Your satellite tracking list
Your tracking list is empty




NASA's NSSDC Master Catalog

Two Line Element Set (TLE):
1 45035U 09070N   22148.10822602  .00343667  00000-0  73484-1 0  9997
2 45035  64.4446  17.9505 4717368 358.3458   0.5984  6.06692745 39841
Source of the keplerian elements: AFSPC